{"data":{"norad_id":57073,"intl_designator":"2023-088AB","name":"STARLINK-5838","alt_names":[],"object_type":"PAYLOAD","status":"ACTIVE","operator":null,"country":"US","launch_date":"2023-06-22","launch_site_code":"AFWTR","launch_vehicle":null,"mission":null,"orbit_class":"UNKNOWN","rcs_meters":null,"size_class":null,"mass_kg":null,"dimensions":null,"purposes":["comms"],"wikipedia_slug":null,"has_3d_model":false,"image_url":null,"decayed_at":null,"tle_current":{"epoch":"2026-09-20T21:34:53.325120Z","epoch_age_seconds":86439,"freshness":"FRESH","line1":"1 57073U 23088AB  26263.89922830 -.00000195  00000+0  24241-5 0  9996","line2":"2 57073  43.0032  73.8109 0001318 255.7579 104.3126 15.27576224179372","mean_motion":15.27576224,"eccentricity":0.0001318,"inclination_deg":43.0032,"raan_deg":73.8109,"arg_perigee_deg":255.7579,"mean_anomaly_deg":104.3126,"bstar":2.4241e-6,"rev_number":17937,"period_min":94.266981730661,"perigee_km":482.15609694767,"apogee_km":483.96470858304,"semimajor_km":6861.1974027654,"source":"CELESTRAK","updated_at":"2026-09-21T09:00:33.553163Z"}}}